QPF
0.00 0.00 0.01 0.01 0.01 0.01 0.01 0.01 0.01 0.00 0.00 0.00 0.00 0.00 0.00 0.00 0.00 0.00 0.00 0.01 0.01 0.01 0.01 0.02 0.02 0.03 0.03 0.03 0.02 0.01 0.01 0.01 0.01 0.01 0.00 0.00 0.00 0.01 0.01 0.01 0.01 0.01 0.01 0.01
0.00 0.00 0.00 0.00 0.00 0.00 0.00 0.00 0.00 0.00 0.00 0.00 0.00 0.00 0.00 0.00 0.00 0.00 0.00 0.00 0.01 0.01 0.01 0.02 0.02 0.02 0.02 0.02 0.02 0.02 0.01 0.01 0.01 0.01 0.00 0.00 0.00 0.00 0.01 0.01 0.01 0.01 0.01 0.01
0.01 0.00 0.00 0.00 0.00 0.00 0.00 0.00 0.00 0.00 0.00 0.00 0.00 0.00 0.00 0.00 0.00 0.00 0.00 0.00 0.00 0.01 0.01 0.02 0.02 0.02 0.01 0.01 0.01 0.01 0.01 0.01 0.01 0.01 0.01 0.01 0.01 0.01 0.01 0.01 0.01 0.00 0.00 0.01
0.01 0.01 0.01 0.00 0.00 0.00 0.00 0.00 0.00 0.00 0.00 0.00 0.00 0.00 0.00 0.00 0.00 0.00 0.00 0.00 0.00 0.01 0.01 0.01 0.02 0.02 0.02 0.01 0.01 0.01 0.01 0.01 0.01 0.01 0.01 0.01 0.01 0.01 0.01 0.01 0.01 0.01 0.01 0.01
0.02 0.01 0.01 0.00 0.00 0.00 0.00 0.00 0.00 0.00 0.00 0.00 0.00 0.01 0.01 0.00 0.00 0.00 0.00 0.00 0.00 0.00 0.01 0.01 0.01 0.02 0.02 0.02 0.02 0.01 0.01 0.01 0.01 0.02 0.01 0.02 0.02 0.02 0.02 0.02 0.02 0.02 0.02 0.01
0.02 0.02 0.01 0.01 0.01 0.00 0.00 0.01 0.01 0.01 0.00 0.00 0.01 0.01 0.01 0.00 0.00 0.00 0.00 0.00 0.00 0.00 0.00 0.01 0.01 0.01 0.02 0.02 0.02 0.02 0.02 0.02 0.02 0.02 0.01 0.01 0.02 0.01 0.01 0.01 0.01 0.01 0.02 0.01
0.02 0.02 0.01 0.01 0.01 0.00 0.01 0.01 0.01 0.01 0.01 0.01 0.01 0.01 0.00 0.00 0.00 0.00 0.00 0.00 0.00 0.00 0.00 0.01 0.01 0.01 0.02 0.02 0.02 0.02 0.02 0.02 0.02 0.01 0.01 0.01 0.01 0.01 0.01 0.01 0.01 0.01 0.01 0.01
0.02 0.02 0.02 0.01 0.00 0.01 0.01 0.01 0.01 0.01 0.01 0.00 0.00 0.00 0.00 0.01 0.01 0.01 0.00 0.00 0.00 0.00 0.00 0.01 0.02 0.02 0.02 0.02 0.02 0.02 0.01 0.01 0.01 0.01 0.01 0.01 0.01 0.01 0.01 0.00 0.00 0.00 0.01 0.01
0.02 0.02 0.01 0.01 0.01 0.01 0.01 0.01 0.01 0.00 0.00 0.00 0.00 0.00 0.00 0.01 0.01 0.01 0.01 0.01 0.01 0.01 0.01 0.01 0.02 0.03 0.03 0.02 0.02 0.02 0.01 0.01 0.01 0.01 0.01 0.01 0.01 0.01 0.01 0.00 0.00 0.00 0.00 0.00
0.01 0.01 0.01 0.00 0.00 0.01 0.01 0.01 0.01 0.00 0.00 0.00 0.00 0.00 0.00 0.00 0.01 0.01 0.01 0.01 0.01 0.01 0.01 0.01 0.01 0.02 0.02 0.02 0.01 0.01 0.01 0.01 0.01 0.01 0.01 0.01 0.01 0.01 0.01 0.01 0.01 0.01 0.01 0.00
0.01 0.01 0.01 0.00 0.00 0.00 0.00 0.00 0.00 0.00 0.00 0.00 0.00 0.00 0.00 0.01 0.01 0.01 0.01 0.02 0.02 0.02 0.01 0.01 0.01 0.01 0.01 0.01 0.01 0.01 0.01 0.01 0.01 0.01 0.01 0.01 0.01 0.00 0.00 0.01 0.01 0.01 0.01 0.01
0.01 0.01 0.01 0.01 0.00 0.00 0.01 0.00 0.00 0.00 0.00 0.00 0.00 0.00 0.00 0.01 0.01 0.01 0.01 0.01 0.01 0.01 0.01 0.01 0.01 0.01 0.01 0.01 0.01 0.01 0.01 0.01 0.01 0.01 0.01 0.01 0.01 0.01 0.00 0.01 0.01 0.01 0.01 0.01
0.01 0.01 0.01 0.01 0.01 0.01 0.01 0.01 0.00 0.00 0.00 0.00 0.00 0.00 0.00 0.01 0.01 0.01 0.01 0.01 0.00 0.00 0.00 0.00 0.00 0.00 0.01 0.01 0.01 0.01 0.01 0.01 0.01 0.01 0.01 0.01 0.01 0.01 0.01 0.01 0.01 0.01 0.01 0.01
0.01 0.01 0.01 0.01 0.01 0.01 0.01 0.01 0.01 0.01 0.01 0.00 0.00 0.00 0.00 0.00 0.00 0.00 0.00 0.00 0.00 0.00 0.00 0.00 0.00 0.00 0.00 0.01 0.01 0.01 0.01 0.01 0.01 0.01 0.01 0.01 0.01 0.01 0.01 0.01 0.02 0.01 0.01 0.02
0.01 0.01 0.02 0.01 0.01 0.01 0.01 0.01 0.01 0.01 0.01 0.00 0.00 0.00 0.00 0.00 0.00 0.00 0.00 0.00 0.00 0.00 0.00 0.00 0.00 0.00 0.00 0.00 0.01 0.01 0.01 0.01 0.01 0.01 0.01 0.01 0.01 0.01 0.01 0.02 0.02 0.01 0.01 0.01
0.01 0.01 0.01 0.01 0.01 0.01 0.01 0.01 0.01 0.01 0.01 0.01 0.01 0.01 0.01 0.01 0.01 0.01 0.00 0.00 0.00 0.00 0.00 0.00 0.00 0.00 0.00 0.00 0.01 0.01 0.01 0.01 0.01 0.01 0.01 0.01 0.01 0.01 0.02 0.02 0.02 0.02 0.02 0.02
0.01 0.01 0.01 0.01 0.01 0.01 0.01 0.01 0.01 0.01 0.01 0.01 0.01 0.01 0.01 0.01 0.02 0.01 0.01 0.00 0.00 0.00 0.00 0.00 0.00 0.00 0.00 0.00 0.01 0.01 0.01 0.01 0.01 0.01 0.01 0.01 0.02 0.02 0.02 0.02 0.03 0.03 0.03 0.02
0.01 0.01 0.01 0.01 0.01 0.01 0.01 0.01 0.01 0.01 0.01 0.01 0.01 0.01 0.01 0.01 0.01 0.02 0.01 0.01 0.01 0.00 0.00 0.00 0.00 0.00 0.00 0.00 0.01 0.01 0.01 0.01 0.01 0.01 0.01 0.01 0.01 0.02 0.02 0.02 0.03 0.03 0.04 0.03
0.01 0.01 0.01 0.01 0.01 0.01 0.01 0.01 0.01 0.01 0.01 0.01 0.01 0.01 0.01 0.01 0.01 0.01 0.01 0.01 0.01 0.00 0.00 0.00 0.00 0.00 0.00 0.00 0.01 0.01 0.01 0.01 0.01 0.01 0.02 0.02 0.02 0.02 0.02 0.02 0.02 0.03 0.03 0.03
0.01 0.01 0.01 0.01 0.01 0.01 0.01 0.00 0.00 0.00 0.00 0.00 0.00 0.00 0.00 0.00 0.00 0.00 0.00 0.00 0.00 0.00 0.00 0.00 0.00 0.00 0.00 0.00 0.01 0.01 0.01 0.01 0.01 0.01 0.02 0.02 0.02 0.01 0.01 0.02 0.02 0.02 0.02 0.02
0.01 0.01 0.01 0.01 0.01 0.01 0.00 0.00 0.00 0.00 0.00 0.00 0.00 0.00 0.00 0.00 0.00 0.00 0.00 0.01 0.00 0.00 0.00 0.00 0.00 0.00 0.01 0.01 0.01 0.01 0.01 0.01 0.01 0.01 0.01 0.01 0.02 0.02 0.02 0.02 0.02 0.01 0.01 0.01
0.01 0.01 0.01 0.01 0.01 0.00 0.00 0.00 0.00 0.00 0.00 0.00 0.00 0.00 0.00 0.00 0.00 0.00 0.00 0.01 0.01 0.01 0.00 0.00 0.00 0.01 0.01 0.01 0.01 0.01 0.01 0.01 0.01 0.01 0.01 0.01 0.02 0.02 0.02 0.02 0.02 0.01 0.01 0.01
0.01 0.01 0.00 0.00 0.00 0.00 0.00 0.00 0.00 0.00 0.00 0.00 0.00 0.00 0.00 0.00 0.00 0.00 0.00 0.00 0.01 0.01 0.01 0.01 0.01 0.02 0.02 0.01 0.01 0.01 0.01 0.02 0.02 0.02 0.02 0.01 0.01 0.01 0.02 0.02 0.01 0.01 0.01 0.01
0.01 0.00 0.00 0.01 0.01 0.01 0.00 0.00 0.01 0.00 0.00 0.00 0.00 0.01 0.01 0.01 0.00 0.00 0.00 0.00 0.01 0.01 0.01 0.01 0.02 0.02 0.01 0.01 0.01 0.01 0.01 0.02 0.02 0.02 0.02 0.01 0.01 0.01 0.01 0.01 0.01 0.01 0.01 0.01
0.01 0.01 0.01 0.01 0.01 0.01 0.01 0.01 0.01 0.00 0.00 0.00 0.00 0.00 0.00 0.00 0.00 0.00 0.00 0.00 0.01 0.01 0.01 0.01 0.02 0.02 0.01 0.01 0.01 0.01 0.01 0.01 0.02 0.01 0.01 0.01 0.01 0.01 0.01 0.01 0.01 0.01 0.01 0.00
0.01 0.01 0.01 0.02 0.02 0.01 0.01 0.01 0.00 0.00 0.00 0.00 0.00 0.00 0.00 0.00 0.00 0.00 0.00 0.01 0.01 0.01 0.01 0.01 0.01 0.01 0.01 0.01 0.01 0.01 0.01 0.01 0.01 0.01 0.01 0.01 0.01 0.01 0.01 0.01 0.01 0.01 0.01 0.01
0.01 0.01 0.01 0.01 0.01 0.01 0.01 0.01 0.00 0.00 0.00 0.00 0.00 0.01 0.01 0.01 0.01 0.01 0.01 0.01 0.01 0.01 0.01 0.01 0.01 0.01 0.01 0.01 0.01 0.01 0.01 0.01 0.01 0.01 0.01 0.01 0.01 0.01 0.01 0.01 0.01 0.01 0.01 0.01
MSLP
1021.22 1020.91 1020.57 1020.17 1019.63 1018.93 1018.05 1017.01 1015.84 1014.61 1013.42 1012.35 1011.48 1010.85 1010.49 1010.39 1010.49 1010.74 1011.07 1011.42 1011.75 1012.03 1012.27 1012.50 1012.75 1013.04 1013.39 1013.82 1014.29 1014.80 1015.29 1015.75 1016.14 1016.47 1016.73 1016.95 1017.17 1017.42 1017.71 1018.06 1018.46 1018.90 1019.33 1019.72
1021.75 1021.32 1020.83 1020.26 1019.56 1018.74 1017.79 1016.72 1015.58 1014.43 1013.34 1012.35 1011.54 1010.94 1010.54 1010.33 1010.28 1010.34 1010.46 1010.61 1010.76 1010.91 1011.07 1011.27 1011.53 1011.86 1012.27 1012.77 1013.31 1013.86 1014.40 1014.89 1015.30 1015.64 1015.92 1016.17 1016.42 1016.70 1017.03 1017.42 1017.86 1018.33 1018.79 1019.21
1022.01 1021.47 1020.86 1020.15 1019.34 1018.43 1017.43 1016.38 1015.29 1014.23 1013.24 1012.35 1011.60 1011.01 1010.58 1010.27 1010.08 1009.96 1009.88 1009.84 1009.82 1009.84 1009.92 1010.07 1010.31 1010.67 1011.12 1011.66 1012.26 1012.86 1013.44 1013.96 1014.41 1014.79 1015.11 1015.40 1015.68 1016.00 1016.36 1016.77 1017.22 1017.70 1018.17 1018.60
1021.91 1021.29 1020.58 1019.78 1018.89 1017.94 1016.94 1015.93 1014.92 1013.97 1013.08 1012.30 1011.63 1011.07 1010.61 1010.24 1009.92 1009.65 1009.41 1009.20 1009.03 1008.92 1008.90 1008.98 1009.20 1009.54 1010.01 1010.57 1011.19 1011.83 1012.45 1013.01 1013.51 1013.93 1014.31 1014.64 1014.98 1015.33 1015.71 1016.13 1016.58 1017.05 1017.50 1017.90
1021.43 1020.74 1019.95 1019.09 1018.17 1017.22 1016.25 1015.31 1014.41 1013.58 1012.83 1012.16 1011.58 1011.07 1010.62 1010.21 1009.82 1009.44 1009.07 1008.72 1008.42 1008.20 1008.08 1008.09 1008.24 1008.55 1008.99 1009.55 1010.17 1010.83 1011.47 1012.07 1012.62 1013.10 1013.53 1013.93 1014.31 1014.69 1015.09 1015.52 1015.95 1016.38 1016.80 1017.17
1020.55 1019.80 1018.96 1018.07 1017.15 1016.22 1015.33 1014.49 1013.71 1013.01 1012.39 1011.85 1011.38 1010.95 1010.54 1010.13 1009.70 1009.27 1008.82 1008.39 1007.99 1007.68 1007.47 1007.40 1007.49 1007.74 1008.13 1008.65 1009.25 1009.90 1010.55 1011.17 1011.76 1012.29 1012.78 1013.23 1013.66 1014.07 1014.49 1014.91 1015.32 1015.72 1016.09 1016.42
1019.29 1018.48 1017.61 1016.72 1015.82 1014.95 1014.14 1013.40 1012.75 1012.19 1011.71 1011.30 1010.94 1010.60 1010.26 1009.89 1009.49 1009.06 1008.59 1008.12 1007.69 1007.32 1007.05 1006.92 1006.94 1007.12 1007.44 1007.90 1008.45 1009.06 1009.70 1010.33 1010.93 1011.51 1012.04 1012.53 1013.00 1013.44 1013.87 1014.28 1014.67 1015.04 1015.38 1015.67
1017.70 1016.85 1015.97 1015.08 1014.22 1013.41 1012.68 1012.04 1011.50 1011.06 1010.70 1010.41 1010.16 1009.93 1009.68 1009.40 1009.07 1008.69 1008.26 1007.82 1007.40 1007.02 1006.74 1006.57 1006.53 1006.64 1006.90 1007.28 1007.77 1008.33 1008.92 1009.53 1010.14 1010.72 1011.28 1011.80 1012.29 1012.76 1013.20 1013.61 1013.98 1014.33 1014.64 1014.92
1015.88 1015.01 1014.12 1013.25 1012.43 1011.67 1011.01 1010.44 1009.98 1009.62 1009.35 1009.15 1009.00 1008.87 1008.72 1008.55 1008.32 1008.05 1007.72 1007.37 1007.01 1006.68 1006.42 1006.25 1006.18 1006.25 1006.44 1006.75 1007.17 1007.66 1008.20 1008.77 1009.35 1009.93 1010.48 1011.02 1011.52 1012.00 1012.44 1012.85 1013.22 1013.56 1013.86 1014.14
1013.96 1013.07 1012.20 1011.35 1010.56 1009.84 1009.21 1008.67 1008.24 1007.92 1007.69 1007.54 1007.46 1007.40 1007.36 1007.30 1007.20 1007.06 1006.87 1006.65 1006.41 1006.18 1005.98 1005.85 1005.79 1005.84 1005.99 1006.24 1006.59 1007.01 1007.49 1008.01 1008.54 1009.09 1009.63 1010.16 1010.66 1011.14 1011.58 1012.00 1012.38 1012.72 1013.03 1013.32
1012.08 1011.21 1010.35 1009.53 1008.75 1008.04 1007.41 1006.87 1006.42 1006.07 1005.83 1005.68 1005.61 1005.61 1005.63 1005.67 1005.70 1005.70 1005.67 1005.61 1005.52 1005.41 1005.32 1005.26 1005.25 1005.31 1005.45 1005.67 1005.96 1006.33 1006.75 1007.21 1007.70 1008.21 1008.72 1009.22 1009.71 1010.18 1010.63 1011.05 1011.44 1011.81 1012.14 1012.46
1010.41 1009.58 1008.75 1007.95 1007.18 1006.45 1005.78 1005.18 1004.66 1004.24 1003.93 1003.72 1003.62 1003.61 1003.67 1003.78 1003.91 1004.04 1004.16 1004.25 1004.31 1004.35 1004.39 1004.43 1004.49 1004.59 1004.75 1004.96 1005.23 1005.56 1005.94 1006.36 1006.81 1007.27 1007.75 1008.23 1008.71 1009.17 1009.62 1010.05 1010.46 1010.85 1011.22 1011.56
1009.05 1008.27 1007.50 1006.72 1005.95 1005.19 1004.46 1003.77 1003.14 1002.61 1002.18 1001.87 1001.69 1001.62 1001.67 1001.80 1001.98 1002.20 1002.43 1002.65 1002.85 1003.03 1003.18 1003.33 1003.48 1003.65 1003.84 1004.08 1004.36 1004.68 1005.05 1005.45 1005.87 1006.32 1006.77 1007.23 1007.69 1008.15 1008.60 1009.04 1009.46 1009.88 1010.27 1010.66
1008.05 1007.36 1006.64 1005.90 1005.13 1004.34 1003.53 1002.74 1001.99 1001.31 1000.74 1000.29 999.99 999.84 999.82 999.92 1000.11 1000.37 1000.66 1000.96 1001.25 1001.53 1001.78 1002.02 1002.26 1002.50 1002.75 1003.04 1003.35 1003.70 1004.08 1004.49 1004.91 1005.35 1005.80 1006.26 1006.71 1007.16 1007.61 1008.06 1008.50 1008.93 1009.35 1009.76
1007.41 1006.81 1006.17 1005.47 1004.71 1003.89 1003.02 1002.14 1001.27 1000.45 999.74 999.14 998.71 998.44 998.32 998.34 998.49 998.72 999.01 999.33 999.66 999.99 1000.30 1000.61 1000.91 1001.21 1001.53 1001.88 1002.25 1002.65 1003.07 1003.51 1003.96 1004.42 1004.88 1005.34 1005.79 1006.25 1006.70 1007.15 1007.59 1008.04 1008.47 1008.89
1007.03 1006.54 1005.99 1005.36 1004.63 1003.81 1002.90 1001.95 1000.99 1000.06 999.22 998.49 997.93 997.53 997.29 997.21 997.26 997.42 997.66 997.94 998.25 998.57 998.89 999.22 999.55 999.90 1000.28 1000.68 1001.11 1001.57 1002.05 1002.54 1003.03 1003.53 1004.01 1004.49 1004.95 1005.41 1005.86 1006.31 1006.75 1007.19 1007.63 1008.05
1006.82 1006.44 1006.00 1005.45 1004.77 1003.97 1003.07 1002.09 1001.08 1000.09 999.16 998.34 997.66 997.15 996.80 996.60 996.54 996.59 996.72 996.91 997.15 997.41 997.69 998.00 998.33 998.70 999.10 999.55 1000.03 1000.54 1001.08 1001.62 1002.17 1002.70 1003.21 1003.70 1004.17 1004.63 1005.08 1005.52 1005.95 1006.38 1006.80 1007.21
1006.66 1006.41 1006.06 1005.60 1005.00 1004.26 1003.40 1002.45 1001.44 1000.44 999.48 998.61 997.87 997.28 996.83 996.52 996.34 996.27 996.28 996.35 996.47 996.64 996.84 997.08 997.37 997.72 998.12 998.58 999.09 999.64 1000.21 1000.80 1001.38 1001.93 1002.47 1002.97 1003.44 1003.89 1004.32 1004.74 1005.16 1005.56 1005.96 1006.35
1006.49 1006.34 1006.10 1005.74 1005.23 1004.57 1003.78 1002.90 1001.95 1000.99 1000.06 999.21 998.46 997.82 997.32 996.93 996.65 996.46 996.35 996.29 996.29 996.33 996.42 996.57 996.78 997.07 997.43 997.87 998.37 998.92 999.50 1000.09 1000.68 1001.24 1001.78 1002.27 1002.73 1003.16 1003.56 1003.95 1004.34 1004.71 1005.08 1005.44
1006.29 1006.22 1006.07 1005.80 1005.38 1004.82 1004.14 1003.35 1002.50 1001.64 1000.79 999.99 999.28 998.66 998.14 997.72 997.37 997.09 996.87 996.69 996.56 996.48 996.45 996.48 996.60 996.80 997.09 997.46 997.91 998.42 998.97 999.54 1000.09 1000.63 1001.13 1001.60 1002.02 1002.41 1002.78 1003.13 1003.47 1003.82 1004.15 1004.48
1006.08 1006.08 1006.00 1005.80 1005.47 1005.01 1004.43 1003.76 1003.03 1002.29 1001.56 1000.86 1000.23 999.67 999.18 998.75 998.37 998.04 997.74 997.47 997.23 997.03 996.88 996.80 996.80 996.90 997.08 997.37 997.74 998.17 998.64 999.14 999.63 1000.11 1000.55 1000.96 1001.33 1001.67 1001.99 1002.29 1002.60 1002.90 1003.20 1003.49
1005.93 1005.97 1005.92 1005.78 1005.52 1005.14 1004.67 1004.12 1003.52 1002.91 1002.30 1001.73 1001.21 1000.73 1000.30 999.90 999.53 999.18 998.83 998.49 998.17 997.88 997.63 997.45 997.34 997.32 997.39 997.56 997.82 998.14 998.52 998.91 999.31 999.70 1000.07 1000.40 1000.70 1000.98 1001.24 1001.50 1001.75 1002.01 1002.28 1002.54
1005.90 1005.94 1005.92 1005.80 1005.59 1005.28 1004.89 1004.44 1003.97 1003.48 1003.00 1002.56 1002.14 1001.76 1001.40 1001.06 1000.72 1000.37 1000.01 999.64 999.27 998.91 998.58 998.30 998.10 997.97 997.93 997.99 998.12 998.32 998.58 998.86 999.15 999.44 999.71 999.96 1000.18 1000.40 1000.60 1000.80 1001.01 1001.23 1001.46 1001.69
1006.02 1006.05 1006.02 1005.91 1005.72 1005.45 1005.13 1004.77 1004.38 1004.01 1003.64 1003.30 1002.99 1002.69 1002.41 1002.12 1001.82 1001.50 1001.15 1000.77 1000.37 999.98 999.60 999.26 998.97 998.75 998.61 998.56 998.58 998.67 998.80 998.97 999.15 999.33 999.51 999.68 999.83 999.98 1000.12 1000.27 1000.44 1000.61 1000.80 1000.99
1006.29 1006.28 1006.22 1006.10 1005.92 1005.68 1005.40 1005.09 1004.78 1004.48 1004.20 1003.94 1003.71 1003.49 1003.26 1003.03 1002.76 1002.47 1002.14 1001.77 1001.37 1000.96 1000.55 1000.17 999.84 999.56 999.35 999.21 999.14 999.12 999.16 999.22 999.31 999.40 999.49 999.58 999.67 999.76 999.85 999.95 1000.06 1000.19 1000.33 1000.47
1006.64 1006.59 1006.50 1006.36 1006.16 1005.93 1005.68 1005.41 1005.15 1004.90 1004.68 1004.47 1004.28 1004.10 1003.92 1003.72 1003.48 1003.21 1002.90 1002.55 1002.16 1001.76 1001.36 1000.97 1000.61 1000.30 1000.05 999.85 999.72 999.64 999.59 999.58 999.60 999.61 999.64 999.67 999.70 999.73 999.77 999.82 999.88 999.95 1000.04 1000.12
1006.99 1006.90 1006.78 1006.61 1006.41 1006.18 1005.94 1005.70 1005.46 1005.24 1005.04 1004.85 1004.69 1004.52 1004.35 1004.16 1003.94 1003.69 1003.39 1003.06 1002.70 1002.32 1001.94 1001.57 1001.22 1000.91 1000.64 1000.43 1000.26 1000.14 1000.05 1000.00 999.96 999.93 999.90 999.88 999.86 999.84 999.83 999.82 999.83 999.84 999.85 999.87
Thickness
5460 5467 5466 5462 5462 5459 5456 5460 5461 5477 5482 5492 5491 5488 5487 5485 5482 5481 5478 5476 5472 5469 5466 5464 5462 5460 5459 5459 5459 5459 5458 5457 5456 5455 5454 5452 5451 5450 5449 5448 5448 5448 5447 5447
5447 5458 5455 5453 5458 5458 5455 5458 5460 5465 5472 5485 5482 5479 5476 5474 5472 5469 5467 5465 5463 5461 5457 5455 5453 5450 5449 5448 5448 5448 5447 5446 5446 5445 5443 5442 5441 5439 5439 5438 5438 5437 5437 5436
5439 5447 5441 5440 5458 5457 5455 5458 5457 5457 5469 5474 5468 5466 5464 5462 5461 5458 5456 5455 5453 5449 5446 5445 5442 5441 5439 5438 5438 5437 5436 5436 5435 5434 5432 5431 5430 5429 5428 5428 5427 5427 5426 5426
5425 5427 5418 5455 5468 5465 5458 5458 5457 5457 5460 5460 5457 5454 5453 5451 5448 5446 5445 5444 5442 5439 5437 5435 5434 5432 5430 5429 5428 5427 5426 5424 5424 5423 5421 5420 5420 5419 5418 5417 5417 5416 5416 5415
5413 5415 5431 5450 5457 5453 5447 5447 5452 5449 5449 5447 5445 5442 5440 5440 5438 5435 5434 5433 5431 5429 5427 5425 5424 5422 5420 5419 5417 5416 5415 5414 5413 5412 5411 5410 5409 5409 5408 5408 5407 5406 5406 5405
5407 5407 5419 5445 5443 5443 5438 5432 5442 5440 5436 5433 5432 5425 5428 5429 5426 5425 5423 5421 5420 5418 5417 5415 5414 5413 5410 5409 5407 5406 5405 5404 5403 5402 5401 5400 5399 5399 5398 5398 5397 5397 5396 5396
5398 5401 5417 5431 5430 5431 5421 5426 5430 5430 5426 5422 5418 5415 5416 5416 5414 5413 5411 5410 5409 5408 5406 5405 5404 5402 5401 5399 5398 5397 5396 5394 5393 5392 5391 5391 5390 5389 5389 5388 5387 5387 5387 5387
5392 5393 5406 5418 5416 5416 5416 5419 5419 5417 5415 5411 5407 5406 5405 5404 5402 5401 5399 5399 5398 5396 5396 5395 5393 5392 5391 5389 5389 5388 5386 5385 5384 5383 5383 5383 5381 5380 5379 5379 5378 5377 5377 5377
5396 5404 5411 5409 5408 5407 5408 5407 5406 5404 5402 5400 5396 5395 5394 5393 5391 5390 5389 5388 5386 5385 5385 5384 5383 5383 5381 5381 5379 5378 5376 5375 5374 5374 5373 5373 5372 5371 5370 5370 5369 5368 5368 5367
5392 5400 5402 5400 5399 5399 5398 5396 5395 5392 5390 5389 5386 5384 5383 5382 5381 5379 5379 5378 5376 5375 5374 5374 5374 5373 5372 5371 5370 5368 5367 5366 5366 5365 5364 5364 5363 5363 5362 5361 5360 5360 5359 5358
5380 5389 5390 5390 5389 5389 5387 5386 5385 5383 5381 5378 5377 5375 5373 5372 5371 5370 5370 5369 5368 5366 5365 5365 5365 5365 5363 5362 5361 5359 5358 5357 5357 5356 5355 5354 5354 5354 5353 5353 5352 5351 5350 5349
5378 5381 5379 5382 5382 5380 5377 5376 5374 5373 5371 5370 5368 5366 5364 5363 5362 5361 5360 5359 5358 5357 5357 5357 5356 5356 5355 5354 5353 5351 5350 5349 5348 5347 5346 5345 5344 5344 5345 5344 5345 5344 5343 5342
5372 5372 5371 5372 5372 5371 5368 5367 5365 5363 5362 5360 5359 5357 5355 5354 5353 5352 5352 5351 5350 5350 5349 5349 5348 5348 5348 5347 5346 5344 5343 5342 5341 5340 5338 5337 5336 5335 5334 5335 5335 5335 5334 5334
5362 5360 5360 5361 5359 5358 5358 5357 5355 5354 5353 5351 5349 5348 5346 5345 5345 5344 5344 5344 5343 5342 5342 5341 5341 5341 5340 5340 5338 5337 5335 5335 5333 5332 5331 5329 5329 5327 5326 5325 5325 5325 5325 5325
5349 5347 5347 5348 5347 5347 5346 5345 5343 5343 5343 5342 5340 5339 5337 5336 5336 5336 5336 5336 5335 5335 5334 5334 5334 5333 5332 5331 5330 5329 5328 5326 5325 5324 5323 5322 5321 5320 5318 5317 5316 5316 5315 5315
5338 5337 5337 5336 5335 5335 5334 5334 5332 5332 5333 5332 5331 5330 5329 5328 5328 5328 5328 5328 5327 5327 5327 5327 5327 5326 5325 5324 5323 5321 5320 5320 5319 5317 5316 5314 5313 5312 5311 5310 5309 5308 5307 5306
5327 5327 5327 5326 5326 5325 5324 5324 5323 5323 5323 5323 5322 5321 5320 5319 5319 5319 5320 5320 5320 5321 5321 5320 5320 5320 5319 5317 5316 5315 5314 5313 5313 5310 5309 5308 5307 5305 5304 5303 5302 5301 5300 5300
5320 5320 5319 5318 5317 5315 5315 5314 5314 5314 5314 5314 5313 5312 5311 5311 5311 5311 5311 5312 5312 5313 5314 5314 5313 5313 5313 5311 5310 5308 5307 5305 5304 5303 5302 5301 5300 5299 5298 5297 5296 5295 5294 5293
5312 5311 5311 5310 5308 5307 5306 5305 5305 5305 5305 5305 5304 5303 5303 5303 5303 5303 5303 5304 5304 5305 5306 5306 5307 5306 5305 5304 5303 5302 5300 5299 5298 5297 5296 5296 5294 5293 5292 5291 5290 5289 5287 5286
5303 5303 5301 5300 5300 5298 5297 5297 5296 5297 5297 5296 5296 5295 5295 5295 5295 5296 5296 5297 5298 5299 5300 5300 5300 5299 5298 5298 5297 5295 5294 5293 5292 5291 5290 5289 5288 5287 5286 5285 5284 5283 5282 5281
5294 5294 5293 5292 5291 5291 5290 5289 5289 5289 5290 5290 5289 5289 5289 5289 5289 5289 5289 5291 5293 5292 5293 5294 5293 5293 5292 5291 5291 5289 5288 5287 5286 5285 5284 5284 5283 5282 5281 5280 5279 5278 5277 5276
5286 5286 5285 5285 5284 5283 5283 5283 5283 5283 5284 5284 5283 5283 5282 5282 5282 5283 5284 5285 5287 5287 5287 5287 5286 5287 5286 5286 5285 5283 5282 5282 5281 5280 5280 5279 5278 5277 5276 5274 5273 5272 5271 5270
5279 5279 5279 5278 5277 5277 5277 5277 5278 5278 5278 5278 5278 5278 5278 5278 5278 5278 5279 5280 5280 5281 5281 5281 5281 5282 5282 5281 5279 5278 5277 5276 5276 5275 5275 5274 5273 5272 5270 5269 5268 5266 5265 5264
5274 5274 5273 5272 5271 5271 5271 5273 5272 5273 5273 5274 5274 5275 5274 5274 5274 5275 5275 5276 5276 5276 5275 5276 5277 5277 5277 5275 5274 5273 5272 5271 5271 5270 5269 5269 5268 5266 5265 5264 5262 5261 5260 5259
5268 5267 5267 5266 5266 5267 5267 5267 5267 5267 5268 5269 5270 5270 5270 5270 5270 5270 5270 5270 5271 5271 5270 5270 5271 5271 5270 5268 5268 5268 5267 5266 5266 5265 5264 5263 5262 5261 5260 5259 5257 5256 5256 5255
5262 5262 5262 5262 5262 5262 5262 5262 5262 5263 5264 5264 5265 5265 5265 5265 5264 5264 5264 5265 5264 5265 5264 5263 5263 5263 5263 5262 5262 5262 5261 5261 5260 5259 5259 5258 5257 5256 5255 5254 5253 5252 5252 5251
5256 5257 5257 5257 5258 5258 5258 5258 5258 5258 5259 5259 5259 5260 5260 5260 5259 5259 5259 5259 5258 5258 5258 5257 5257 5257 5257 5257 5257 5256 5256 5255 5255 5254 5254 5253 5252 5251 5251 5250 5249 5248 5248 5247